EW0370 Weather Reports


time (UTC)temp
C
wind
direction
speed
KPH
gust
KPH
rain 1hr
cm
rain 24hr
cm
rain mn
cm
humidity
%
barometer
mb
20260507032744 13 0 0.0 0.0 0.00 0.00 0.00 58 1018.6
20260507032244 13 74 0.0 0.0 0.00 0.00 0.00 58 1018.6
20260507031744 13 0 0.0 0.0 0.00 0.00 0.00 57 1018.5
20260507031245 13 0 0.0 0.0 0.00 0.00 0.00 57 1018.4
20260507030745 13 0 0.0 0.0 0.00 0.00 0.00 57 1018.3
20260507030245 13 0 0.0 0.0 0.00 0.00 0.00 56 1018.3
20260507025743 13 0 0.0 0.0 0.00 0.00 0.00 56 1018.2
20260507025244 13 332 1.6 3.2 0.00 0.00 0.00 56 1018.0
20260507024743 14 212 0.0 0.0 0.00 0.00 0.00 55 1018.0
20260507024243 14 357 0.0 1.6 0.00 0.00 0.00 54 1017.9
20260507023746 14 322 0.0 1.6 0.00 0.00 0.00 54 1017.9
20260507023245 14 0 0.0 0.0 0.00 0.00 0.00 54 1017.9
20260507022745 15 292 1.6 1.6 0.00 0.00 0.00 53 1017.8
20260507022243 15 0 0.0 0.0 0.00 0.00 0.00 53 1017.8
20260507021743 15 0 0.0 0.0 0.00 0.00 0.00 53 1017.7
20260507021243 15 4 1.6 1.6 0.00 0.00 0.00 52 1017.6
20260507020746 15 0 0.0 0.0 0.00 0.00 0.00 51 1017.6
20260507020245 15 0 0.0 0.0 0.00 0.00 0.00 51 1017.5
20260507015745 15 0 3.2 4.8 0.00 0.00 0.00 50 1017.5
20260507015245 15 5 3.2 3.2 0.00 0.00 0.00 50 1017.4
20260507014743 15 10 1.6 1.6 0.00 0.00 0.00 49 1017.3
20260507014245 16 359 4.8 4.8 0.00 0.00 0.00 49 1017.2
20260507013745 16 33 3.2 3.2 0.00 0.00 0.00 49 1017.0
20260507013245 16 19 3.2 3.2 0.00 0.00 0.00 49 1017.0
20260507012744 16 5 1.6 3.2 0.00 0.00 0.00 48 1016.9
20260507012245 16 8 3.2 4.8 0.00 0.00 0.00 48 1016.9
20260507011747 16 34 3.2 4.8 0.00 0.00 0.00 48 1016.9
20260507011243 16 2 3.2 3.2 0.00 0.00 0.00 48 1016.9
20260507010743 16 6 3.2 4.8 0.00 0.00 0.00 48 1016.8
20260507010244 16 7 4.8 4.8 0.00 0.00 0.00 48 1016.8
20260507005745 16 20 3.2 3.2 0.00 0.00 0.00 47 1016.8
20260507005243 16 24 3.2 3.2 0.00 0.00 0.00 47 1016.8
20260507004745 16 17 1.6 3.2 0.00 0.00 0.00 47 1016.7
20260507004243 17 9 3.2 4.8 0.00 0.00 0.00 47 1016.7
20260507003745 17 27 0.0 1.6 0.00 0.00 0.00 47 1016.7
20260507003247 17 355 1.6 3.2 0.00 0.00 0.00 47 1016.6
20260507002744 17 8 1.6 1.6 0.00 0.00 0.00 47 1016.6
20260507002244 17 10 3.2 3.2 0.00 0.00 0.00 48 1016.6
20260507001744 17 0 3.2 4.8 0.00 0.00 0.00 48 1016.5
20260507001245 17 334 0.0 1.6 0.00 0.00 0.00 48 1016.5
20260507000745 17 1 1.6 1.6 0.00 0.00 0.00 48 1016.4
20260507000245 17 348 3.2 4.8 0.00 0.00 0.00 48 1016.4
20260506235745 17 16 3.2 3.2 0.00 0.00 0.00 47 1016.4
20260506235244 17 17 3.2 6.4 0.00 0.00 0.00 47 1016.4
20260506234744 17 24 1.6 3.2 0.00 0.00 0.00 47 1016.3
20260506234243 17 21 3.2 3.2 0.00 0.00 0.00 47 1016.3
20260506233744 17 358 3.2 3.2 0.00 0.00 0.00 47 1016.2
20260506233246 17 3 4.8 8.0 0.00 0.00 0.00 47 1016.2
20260506232744 17 12 3.2 6.4 0.00 0.00 0.00 46 1016.1
20260506232245 17 165 1.6 3.2 0.00 0.00 0.00 47 1016.1
20260506231745 17 313 0.0 0.0 0.00 0.00 0.00 46 1016.1
20260506231243 17 343 1.6 3.2 0.00 0.00 0.00 46 1016.0
20260506230743 17 20 3.2 4.8 0.00 0.00 0.00 46 1016.0
20260506230245 17 4 3.2 4.8 0.00 0.00 0.00 47 1015.9
20260506225745 17 345 1.6 1.6 0.00 0.00 0.00 46 1015.9
20260506225243 17 7 6.4 9.7 0.00 0.00 0.00 47 1015.9
20260506224744 17 326 3.2 6.4 0.00 0.00 0.00 47 1015.8
20260506224244 17 346 3.2 4.8 0.00 0.00 0.00 46 1015.7
20260506223743 17 348 3.2 3.2 0.00 0.00 0.00 46 1015.7
20260506223245 17 28 3.2 3.2 0.00 0.00 0.00 46 1015.6
20260506222743 17 14 4.8 9.7 0.00 0.00 0.00 46 1015.5
20260506222244 17 32 4.8 8.0 0.00 0.00 0.00 47 1015.5
20260506221746 17 357 3.2 4.8 0.00 0.00 0.00 47 1015.4
20260506221245 17 16 4.8 8.0 0.00 0.00 0.00 47 1015.3
20260506220745 17 355 1.6 4.8 0.00 0.00 0.00 47 1015.3
20260506220245 17 359 6.4 6.4 0.00 0.00 0.00 47 1015.4
20260506215745 17 10 3.2 4.8 0.00 0.00 0.00 46 1015.5
20260506215244 17 14 3.2 6.4 0.00 0.00 0.00 46 1015.4
20260506214743 17 22 1.6 1.6 0.00 0.00 0.00 46 1015.5
20260506214244 17 10 1.6 3.2 0.00 0.00 0.00 47 1015.5
20260506213746 17 338 1.6 3.2 0.00 0.00 0.00 47 1015.6
20260506213243 17 33 1.6 3.2 0.00 0.00 0.00 49 1015.6
20260506212743 17 1 6.4 8.0 0.00 0.00 0.00 48 1015.7
20260506212243 17 358 6.4 9.7 0.00 0.00 0.00 48 1015.8
20260506211745 17 161 6.4 8.0 0.00 0.00 0.00 49 1015.8
20260506211243 17 320 4.8 4.8 0.00 0.00 0.00 49 1015.8
20260506210743 17 113 3.2 6.4 0.00 0.00 0.00 50 1015.9
20260506210243 17 102 1.6 3.2 0.00 0.00 0.00 50 1016.0
20260506205743 17 358 3.2 4.8 0.00 0.00 0.00 50 1016.0
20260506205243 16 326 1.6 3.2 0.00 0.00 0.00 50 1016.0
20260506204745 16 348 4.8 6.4 0.00 0.00 0.00 50 1016.1
20260506204243 17 24 3.2 3.2 0.00 0.00 0.00 50 1016.1
20260506203745 16 4 3.2 3.2 0.00 0.00 0.00 51 1016.1
20260506203243 16 0 4.8 6.4 0.00 0.00 0.00 52 1016.2
20260506202745 16 357 4.8 6.4 0.00 0.00 0.00 52 1016.3
20260506202244 16 9 3.2 4.8 0.00 0.00 0.00 52 1016.3
20260506201746 16 359 3.2 3.2 0.00 0.00 0.00 53 1016.4
20260506201243 16 23 3.2 8.0 0.00 0.00 0.00 52 1016.4
20260506200743 16 13 4.8 8.0 0.00 0.00 0.00 52 1016.4
20260506200243 16 358 3.2 4.8 0.00 0.00 0.00 53 1016.4
20260506195743 16 349 4.8 6.4 0.00 0.00 0.00 52 1016.4
20260506195245 16 2 4.8 6.4 0.00 0.00 0.00 52 1016.4
20260506194745 16 23 1.6 3.2 0.00 0.00 0.00 54 1016.4
20260506194244 16 4 3.2 4.8 0.00 0.00 0.00 54 1016.5
20260506193745 16 31 3.2 3.2 0.00 0.00 0.00 55 1016.5
20260506193247 16 351 3.2 3.2 0.00 0.00 0.00 54 1016.6
20260506192745 15 2 3.2 3.2 0.00 0.00 0.00 55 1016.7
20260506192245 15 355 3.2 3.2 0.00 0.00 0.00 55 1016.8
20260506191746 16 1 3.2 4.8 0.00 0.00 0.00 54 1016.8
20260506191245 16 2 4.8 4.8 0.00 0.00 0.00 55 1016.8
20260506190744 16 10 3.2 3.2 0.00 0.00 0.00 55 1016.8
20260506190245 15 357 4.8 6.4 0.00 0.00 0.00 54 1016.9
20260506185747 15 13 3.2 3.2 0.00 0.00 0.00 55 1016.9
20260506185243 15 6 3.2 4.8 0.00 0.00 0.00 54 1016.9
20260506184745 15 4 3.2 4.8 0.00 0.00 0.00 54 1016.8
20260506184246 15 5 3.2 4.8 0.00 0.00 0.00 55 1016.9
20260506183743 15 47 1.6 3.2 0.00 0.00 0.00 55 1016.9
20260506183245 15 13 4.8 6.4 0.00 0.00 0.00 55 1017.2
20260506182748 15 24 3.2 4.8 0.00 0.00 0.00 55 1017.2
20260506182243 15 23 3.2 4.8 0.00 0.00 0.00 55 1017.2
20260506181746 15 9 6.4 8.0 0.00 0.00 0.00 54 1017.3
20260506181244 15 353 3.2 4.8 0.00 0.00 0.00 54 1017.3
20260506180743 15 8 3.2 4.8 0.00 0.00 0.00 55 1017.3
20260506180246 15 11 1.6 3.2 0.00 0.00 0.00 55 1017.3
20260506175746 15 15 3.2 6.4 0.00 0.00 0.00 55 1017.5
20260506175244 15 29 3.2 4.8 0.00 0.00 0.00 55 1017.5
20260506174743 15 149 3.2 6.4 0.00 0.00 0.00 54 1017.4
20260506174245 15 15 3.2 4.8 0.00 0.00 0.00 57 1017.5
20260506173747 15 21 1.6 3.2 0.00 0.00 0.00 56 1017.6
20260506173246 15 18 3.2 6.4 0.00 0.00 0.00 55 1017.7
20260506172745 15 26 3.2 6.4 0.00 0.00 0.00 55 1017.6
20260506172244 15 68 4.8 9.7 0.00 0.00 0.00 55 1017.5
20260506171746 15 45 4.8 9.7 0.00 0.00 0.00 53 1017.6
20260506171243 15 0 4.8 8.0 0.00 0.00 0.00 54 1017.5
20260506170747 15 149 8.0 12.9 0.00 0.00 0.00 53 1017.6
20260506170244 15 24 3.2 8.0 0.00 0.00 0.00 53 1017.5
20260506165743 15 195 4.8 9.7 0.00 0.00 0.00 55 1017.5
20260506165246 15 3 4.8 8.0 0.00 0.00 0.00 54 1017.6
20260506164745 15 186 6.4 9.7 0.00 0.00 0.00 54 1017.6
20260506164243 15 118 4.8 11.3 0.00 0.00 0.00 54 1017.8
20260506163744 15 40 1.6 3.2 0.00 0.00 0.00 55 1017.7
20260506163243 14 156 6.4 14.5 0.00 0.00 0.00 55 1017.9
20260506162746 14 15 3.2 6.4 0.00 0.00 0.00 56 1017.8
20260506162245 13 19 3.2 6.4 0.00 0.00 0.00 58 1017.8
20260506161746 13 134 4.8 11.3 0.00 0.00 0.00 58 1017.9
20260506161246 13 84 3.2 4.8 0.00 0.00 0.00 58 1017.9
20260506160748 13 24 4.8 8.0 0.00 0.00 0.00 59 1017.8
20260506160246 13 0 6.4 8.0 0.00 0.00 0.00 59 1017.7
20260506155746 13 6 3.2 6.4 0.00 0.00 0.00 60 1017.7
20260506155244 13 12 6.4 9.7 0.00 0.00 0.00 60 1017.7
20260506154744 12 7 4.8 8.0 0.00 0.00 0.00 61 1017.7
20260506154243 12 17 1.6 3.2 0.00 0.00 0.00 62 1017.7
20260506153744 12 16 6.4 9.7 0.00 0.00 0.00 62 1017.5
20260506153247 12 349 4.8 9.7 0.00 0.00 0.00 63 1017.5
20260506152743 12 4 6.4 9.7 0.00 0.00 0.00 62 1017.6
20260506152243 12 36 1.6 4.8 0.00 0.00 0.00 64 1017.5
20260506151744 12 29 3.2 4.8 0.00 0.00 0.00 65 1017.6
20260506151244 12 25 3.2 6.4 0.00 0.00 0.00 66 1017.6
20260506150744 11 0 3.2 6.4 0.00 0.00 0.00 67 1017.6
20260506150248 11 146 3.2 6.4 0.00 0.00 0.00 69 1017.6
20260506145745 11 0 4.8 6.4 0.00 0.00 0.00 70 1017.6
20260506145245 11 2 3.2 4.8 0.00 0.00 0.00 71 1017.5
20260506144744 10 75 1.6 3.2 0.00 0.00 0.00 73 1017.5
20260506144244 10 11 4.8 9.7 0.00 0.00 0.00 74 1017.3
20260506143745 10 7 4.8 8.0 0.00 0.00 0.00 74 1017.0
20260506143245 10 56 3.2 3.2 0.00 0.00 0.00 75 1016.9
20260506142744 10 4 1.6 3.2 0.00 0.00 0.00 76 1017.0
20260506142244 10 353 4.8 6.4 0.00 0.00 0.00 75 1017.0
20260506141745 10 10 6.4 8.0 0.00 0.00 0.00 75 1017.0
20260506141244 10 355 6.4 8.0 0.00 0.00 0.00 75 1017.2
20260506140744 10 12 4.8 8.0 0.00 0.00 0.00 75 1017.2
20260506140245 10 26 3.2 6.4 0.00 0.00 0.00 76 1017.0
20260506135745 10 57 1.6 4.8 0.00 0.00 0.00 77 1017.3
20260506135244 10 359 6.4 9.7 0.00 0.00 0.00 77 1017.2
20260506134743 10 23 3.2 4.8 0.00 0.00 0.00 78 1017.3
20260506134245 10 15 4.8 4.8 0.00 0.00 0.00 78 1017.3
20260506133744 10 13 3.2 4.8 0.00 0.00 0.00 78 1017.3
20260506133244 10 3 6.4 8.0 0.00 0.00 0.00 78 1017.4
20260506132746 10 327 3.2 6.4 0.00 0.00 0.00 78 1017.5
20260506132247 9 8 1.6 3.2 0.00 0.00 0.00 79 1017.4
20260506131744 9 350 4.8 6.4 0.00 0.00 0.00 79 1017.4
20260506131245 9 5 4.8 6.4 0.00 0.00 0.00 79 1017.3
20260506130745 9 299 3.2 4.8 0.00 0.00 0.00 80 1017.2
20260506130244 10 358 6.4 6.4 0.00 0.00 0.00 80 1017.3
20260506125743 10 336 3.2 3.2 0.00 0.00 0.00 80 1017.2
20260506125245 9 309 3.2 3.2 0.00 0.00 0.00 80 1017.0
20260506124743 9 301 1.6 3.2 0.00 0.00 0.00 81 1017.0
20260506124244 9 357 3.2 4.8 0.00 0.00 0.00 81 1017.2
20260506123744 9 357 3.2 3.2 0.00 0.00 0.00 82 1016.9
20260506123243 9 162 1.6 1.6 0.00 0.00 0.00 82 1016.7
20260506122743 9 352 1.6 3.2 0.00 0.00 0.00 82 1016.5
20260506122244 9 354 4.8 8.0 0.00 0.00 0.00 81 1016.5
20260506121744 9 296 3.2 3.2 0.00 0.00 0.00 82 1016.5
20260506121245 9 0 3.2 4.8 0.00 0.00 0.00 81 1016.2
20260506120744 9 322 1.6 4.8 0.00 0.00 0.00 81 1016.1
20260506120254 9 358 3.2 6.4 0.00 0.00 0.00 81 1016.0
20260506115745 9 351 3.2 3.2 0.00 0.00 0.00 81 1016.0
20260506115244 9 4 3.2 4.8 0.00 0.00 0.00 82 1016.1
20260506114255 9 359 3.2 3.2 0.00 0.00 0.00 81 1016.1
20260506113746 9 343 3.2 3.2 0.00 0.00 0.00 81 1016.0
20260506113246 9 357 3.2 3.2 0.00 0.00 0.00 81 1015.9
20260506112745 9 332 1.6 3.2 0.00 0.00 0.00 81 1015.9
20260506112247 9 358 3.2 4.8 0.00 0.00 0.00 81 1015.8
20260506111745 9 19 1.6 3.2 0.00 0.00 0.00 80 1015.6
20260506111245 9 359 3.2 3.2 0.00 0.00 0.00 80 1015.7
20260506110743 9 0 1.6 3.2 0.00 0.00 0.00 80 1015.7
20260506110246 9 351 3.2 4.8 0.00 0.00 0.00 80 1015.6
20260506105745 9 5 1.6 3.2 0.00 0.00 0.00 80 1015.5
20260506105245 9 345 3.2 3.2 0.00 0.00 0.00 79 1015.6
20260506104746 9 340 3.2 3.2 0.00 0.00 0.00 79 1015.8
20260506104245 10 355 3.2 3.2 0.00 0.00 0.00 78 1016.1
20260506103745 10 8 3.2 4.8 0.00 0.00 0.00 78 1016.4
20260506103247 10 269 1.6 3.2 0.00 0.00 0.00 78 1016.5
20260506102747 9 162 1.6 1.6 0.00 0.00 0.00 78 1016.4
20260506102244 10 308 1.6 3.2 0.00 0.00 0.00 77 1016.1
20260506101746 10 354 3.2 3.2 0.00 0.00 0.00 77 1015.9
20260506101246 10 341 3.2 3.2 0.00 0.00 0.00 77 1016.0
20260506100745 10 177 1.6 1.6 0.00 0.00 0.00 78 1016.0
20260506100244 10 357 0.0 1.6 0.00 0.00 0.00 77 1016.1
20260506095743 10 340 1.6 3.2 0.00 0.00 0.00 77 1016.0
20260506095247 10 21 1.6 3.2 0.00 0.00 0.00 77 1015.9
20260506094743 10 22 1.6 1.6 0.00 0.00 0.00 77 1015.8
20260506094245 10 240 1.6 1.6 0.00 0.00 0.00 77 1015.6
20260506093748 10 350 1.6 1.6 0.00 0.00 0.00 77 1015.4
20260506093245 10 341 3.2 3.2 0.00 0.00 0.00 77 1015.0
20260506092745 10 3 1.6 3.2 0.00 0.00 0.00 76 1015.2
20260506092244 10 16 1.6 3.2 0.00 0.00 0.00 76 1015.0
20260506091746 10 338 1.6 1.6 0.00 0.00 0.00 76 1015.0
20260506091247 10 253 1.6 1.6 0.00 0.00 0.00 75 1014.9
20260506090747 10 355 3.2 3.2 0.00 0.00 0.00 75 1015.0
20260506090244 10 355 3.2 3.2 0.00 0.00 0.00 74 1014.7
20260506085746 10 264 1.6 3.2 0.00 0.00 0.00 74 1014.8
20260506085243 10 349 3.2 3.2 0.00 0.00 0.00 74 1014.8
20260506084745 10 318 1.6 3.2 0.00 0.00 0.00 74 1014.7
20260506084246 10 355 3.2 3.2 0.00 0.00 0.00 74 1014.8
20260506083744 10 309 1.6 3.2 0.00 0.00 0.00 74 1014.7
20260506083245 10 344 1.6 3.2 0.00 0.00 0.00 73 1014.6
20260506082743 10 0 3.2 4.8 0.00 0.00 0.00 73 1014.4
20260506082243 10 18 1.6 3.2 0.00 0.00 0.00 73 1014.0
20260506081259 10 353 4.8 6.4 0.00 0.00 0.00 73 1013.9
20260506080745 10 312 1.6 3.2 0.00 0.00 0.00 73 1013.9
20260506080245 10 325 1.6 3.2 0.00 0.00 0.00 73 1013.8
20260506073243 10 346 3.2 4.8 0.00 0.00 0.00 72 1013.6
20260506072749 10 0 3.2 6.4 0.00 0.00 0.00 72 1013.5
20260506072243 10 349 3.2 3.2 0.00 0.00 0.00 72 1013.4
20260506071743 10 28 3.2 6.4 0.00 0.00 0.00 72 1013.3
20260506071245 10 342 4.8 6.4 0.00 0.00 0.00 72 1013.2
20260506070745 10 12 3.2 3.2 0.00 0.00 0.00 72 1013.3
20260506070243 10 9 1.6 3.2 0.00 0.00 0.00 72 1013.4
20260506062243 10 317 1.6 3.2 0.00 0.00 0.00 71 1013.6
20260506061743 10 31 1.6 3.2 0.00 0.00 0.00 71 1013.5
20260506061245 10 350 4.8 6.4 0.00 0.00 0.00 70 1013.5
20260506060743 10 69 1.6 3.2 0.00 0.00 0.00 71 1013.5
20260506060245 10 33 1.6 3.2 0.00 0.00 0.00 71 1013.2
20260506051245 10 240 1.6 3.2 0.00 0.00 0.00 69 1013.2
20260506050743 10 17 3.2 3.2 0.00 0.00 0.00 68 1013.2
20260506050245 10 1 3.2 6.4 0.00 0.00 0.00 68 1013.1
20260506044743 10 350 4.8 8.0 0.00 0.00 0.00 68 1013.3
20260506044243 10 352 4.8 8.0 0.00 0.00 0.00 69 1013.4
20260506043743 10 0 4.8 6.4 0.00 0.00 0.00 70 1013.4
20260506043245 10 353 3.2 3.2 0.00 0.00 0.00 71 1013.5
20260506042743 10 352 3.2 4.8 0.00 0.00 0.00 71 1013.4
20260506042243 10 268 1.6 3.2 0.00 0.00 0.00 72 1013.3
20260506041745 10 0 3.2 6.4 0.00 0.00 0.00 72 1013.4
20260506041243 10 37 1.6 3.2 0.00 0.00 0.00 73 1013.3
20260506040743 10 14 3.2 4.8 0.00 0.00 0.00 73 1013.3
20260506040243 10 74 1.6 1.6 0.00 0.00 0.00 75 1013.4
20260506035748 10 17 4.8 6.4 0.00 0.00 0.00 75 1013.3
20260506035243 10 19 3.2 6.4 0.00 0.00 0.00 75 1013.3
20260506034744 10 354 3.2 6.4 0.00 0.00 0.00 76 1013.2
20260506034245 10 17 3.2 4.8 0.00 0.00 0.00 76 1013.3
20260506033743 10 15 4.8 4.8 0.00 0.00 0.00 77 1013.2
20260506033244 10 19 3.2 4.8 0.00 0.00 0.00 78 1013.1